#timestamp,LO_Frequency,Hit,StdDev 
1657404015.1,286047000.4,P
1657404035.9,286046999.7,P
1657404055.7,286047000.2,N
1657404075.5,286047001.1,Y
1657404095.4,286046998.5,P
1657404115.2,286046998.4,N
1657404135.1,286047000.8,N
1657404136.0,286047000.8,N
1657404155.8,286047001.0,N
1657404175.6,286046998.2,N
1657404195.5,286046998.5,N
1657404215.3,286046998.1,N
1657404235.2,286046999.0,N
1657404255.9,286046999.1,N
1657404275.7,286046998.9,N
1657404295.6,286046999.5,N
1657404315.4,286046998.8,N
1657404335.3,286046996.6,Y
1657404355.1,286046998.8,P
1657404356.0,286046998.8,P
1657404375.8,286046998.3,P
1657404395.7,286046998.4,Y
1657404415.5,286047000.0,P
1657404435.4,286047002.8,P
1657404455.2,286046999.7,N
1657404475.0,286047000.3,N
1657404475.9,286047000.3,N
1657404495.8,286046998.1,N
1657404515.6,286046998.1,N
1657404535.4,286047000.9,N
1657404555.3,286047000.9,N
1657404575.1,286047000.7,N
1657404595.9,286047002.4,N
1657404615.7,286047002.7,N
1657404635.5,286046999.7,N
1657404655.4,286047002.0,N
1657404675.2,286047001.5,N
1657404695.0,286047002.7,N
1657404695.9,286047002.7,N
1657404715.8,286047002.1,N
1657404735.6,286047001.4,N
1657404755.5,286047001.4,N
1657404775.3,286047001.9,N
1657404795.1,286047001.9,N
1657404815.9,286047002.3,N
1657404835.7,286047001.5,N
1657404855.5,286047002.3,N
1657404875.4,286047002.2,N
1657404895.2,286047000.2,N
1657404915.1,286047002.6,N
1657404916.0,286047002.6,N
1657404935.8,286046999.7,N
1657404955.6,286047000.6,N
1657404975.5,286047000.6,N
1657404995.3,286047000.7,N
1657405015.1,286047000.9,N
1657405035.9,286047000.4,N
1657405055.7,286047002.3,N
1657405075.6,286047000.4,N
1657405095.4,286047004.3,Y
1657405115.2,286047006.0,P
1657405135.1,286047004.6,N
1657405136.0,286047004.6,N
1657405155.8,286047005.9,Y
1657405175.6,286047002.7,P
1657405195.5,286047000.9,N
1657405215.3,286047000.3,N
1657405235.2,286046999.8,N
1657405255.9,286047002.5,N
1657405275.7,286047002.0,N
1657405295.6,286047004.1,N
1657405315.4,286047002.5,N
1657405335.2,286047001.6,N
1657405355.1,286047001.7,N
1657405356.0,286047001.7,N
1657405375.8,286047004.0,Y
1657405395.7,286047002.7,P
1657405415.5,286046999.8,N
1657405435.3,286047000.6,N
1657405455.2,286046999.8,N
1657405475.0,286046999.9,N
1657405475.9,286046999.9,N
1657405495.8,286047000.1,N
1657405515.6,286047000.2,N
1657405535.4,286047002.7,N
1657405555.3,286046999.7,N
1657405575.1,286046999.8,N
1657405595.8,286047000.1,N
1657405615.7,286047002.1,N
1657405635.5,286047000.1,N
1657405655.4,286047000.1,N
1657405675.2,286047002.7,N
1657405695.0,286047002.0,N
1657405695.9,286047002.0,N
1657405715.8,286047002.6,N
1657405735.6,286047001.9,N
1657405755.4,286047001.9,N
1657405775.3,286047002.5,N
1657405795.1,286047001.5,N
1657405815.9,286047002.6,N
1657405835.7,286047001.6,N
1657405855.5,286047002.4,N
1657405875.4,286047002.1,N
1657405895.2,286047001.9,N
1657405915.0,286047002.0,N
1657405915.9,286047002.0,N
1657405935.8,286047002.7,N
1657405955.6,286047002.5,N
1657405975.5,286047000.2,N
1657405995.3,286047002.1,N
1657406015.1,286047001.9,N
1657406035.9,286047001.9,N
1657406055.7,286047002.4,N
1657406075.5,286047002.0,N
1657406095.4,286047001.9,N
1657406115.2,286047002.6,N
1657406135.1,286047002.1,N
1657406136.0,286047002.1,N
1657406155.8,286047001.9,N
1657406175.6,286047002.3,Y
1657406195.5,286047000.7,P
1657406215.3,286047001.1,N
1657406235.2,286047000.9,N
1657406255.9,286047000.6,N
1657406275.7,286047000.0,N
1657406295.6,286047002.3,Y
1657406315.4,286047000.2,P
1657406335.2,286046999.9,N
1657406355.1,286047000.9,N
1657406356.0,286047000.9,N
1657406375.8,286047001.2,N
1657406395.7,286046998.5,Y
1657406415.5,286046998.1,P
1657406435.3,286046998.1,N
1657406455.2,286047000.3,N
1657406475.0,286046998.1,N
1657406475.9,286046998.1,N
1657406495.7,286046998.5,N
1657406515.6,286047000.4,N
1657406535.4,286046999.9,N
1657406555.3,286047000.6,N
1657406575.1,286047001.0,N
1657406576.0,286047001.0,N
1657406595.8,286046998.5,N
1657406615.7,286046998.5,N
1657406635.5,286047000.9,N
1657406655.3,286047000.7,N
1657406675.2,286047000.1,N
1657406695.0,286047000.2,N
1657406695.9,286047000.2,N
1657406715.8,286047000.4,N
1657406735.6,286047000.8,N
1657406755.4,286046998.1,N
1657406775.3,286047000.6,N
1657406795.1,286047000.5,N
1657406815.8,286047000.3,N
1657406835.7,286047000.9,N
1657406855.5,286047000.6,N
1657406875.4,286047001.0,N
1657406895.2,286047000.0,N
1657406915.0,286047001.1,N
1657406915.9,286047001.1,N
1657406935.8,286047001.0,N
1657406955.6,286046998.5,N
1657406975.4,286047001.2,N
1657406995.3,286047001.2,N
1657407015.1,286047001.1,N
1657407035.9,286047001.0,N
1657407055.7,286046998.1,N
1657407075.5,286047000.0,N
1657407095.4,286047000.5,N
1657407115.2,286047000.6,N
1657407135.1,286047000.2,N
1657407136.0,286047000.2,N
1657407155.8,286047000.7,N
1657407205.7,286047000.5,E
1657407215.6,286047000.4,N
1657407235.4,286047000.4,P
1657407255.3,286047000.4,P
1657407275.1,286047000.6,Y
1657407295.9,286047000.7,P
1657407315.7,286046998.1,P
1657407335.5,286046998.6,N
1657407355.4,286047000.4,N
1657407375.2,286046998.1,N
1657407395.1,286046998.2,N
1657407396.0,286046998.2,N
1657407415.8,286047000.4,N
1657407435.6,286046998.6,N
1657407455.5,286046998.3,N
1657407475.3,286047001.2,N
1657407495.2,286046998.1,N
1657407515.9,286047000.6,N
1657407535.7,286047000.9,N
1657407555.6,286047000.4,N
1657407575.4,286047000.7,N
1657407595.2,286047000.3,N
